Time,TemperatureF,DewpointF,PressureIn,WindDirection,WindDirectionDegrees,WindSpeedMPH,WindSpeedGustMPH,Humidity,HourlyPrecipIn,Conditions,Clouds,dailyrainin,SoftwareType,DateUTC
2013-03-17 00:03:00,48.0,43.1,29.91,NW,315,2.2,3.8,83,0.00,,OVC020,0.08,VWS V14.01,2013-03-17 04:03:00,
2013-03-17 00:08:00,48.4,43.5,29.91,WNW,292,2.9,6.3,83,0.00,,OVC020,0.08,VWS V14.01,2013-03-17 04:08:00,
2013-03-17 00:13:00,48.7,43.8,29.91,West,270,0.0,5.6,83,0.00,,OVC020,0.08,VWS V14.01,2013-03-17 04:13:00,
2013-03-17 00:18:00,48.7,43.5,29.94,North,0,3.6,4.0,82,0.00,,OVC020,0.08,VWS V14.01,2013-03-17 04:18:00,
2013-03-17 00:23:00,48.7,43.2,29.94,NW,315,3.1,5.8,81,0.00,,OVC020,0.08,VWS V14.01,2013-03-17 04:23:00,
2013-03-17 00:28:00,48.7,42.9,29.94,NNW,338,4.7,4.7,80,0.00,,OVC020,0.08,VWS V14.01,2013-03-17 04:28:00,
2013-03-17 00:33:00,48.6,42.7,29.94,NNW,338,1.6,5.6,80,0.00,,OVC020,0.08,VWS V14.01,2013-03-17 04:33:00,
2013-03-17 00:38:00,48.4,42.2,29.94,NW,315,0.0,3.8,79,0.00,,OVC020,0.08,VWS V14.01,2013-03-17 04:38:00,
2013-03-17 00:43:00,48.2,42.0,29.94,NE,45,2.9,5.6,79,0.00,,OVC020,0.08,VWS V14.01,2013-03-17 04:43:00,
2013-03-17 00:48:00,47.8,42.0,29.94,North,0,2.9,3.4,80,0.00,,OVC020,0.08,VWS V14.01,2013-03-17 04:48:00,
2013-03-17 00:53:00,47.5,41.3,29.94,North,0,5.6,5.6,79,0.00,,OVC020,0.08,VWS V14.01,2013-03-17 04:53:00,
2013-03-17 00:58:00,47.5,41.3,29.94,NNW,338,2.5,5.6,79,0.00,,OVC020,0.08,VWS V14.01,2013-03-17 04:58:00,
2013-03-17 01:03:00,47.3,41.5,29.91,SSW,202,1.3,3.4,80,0.00,,OVC014,0.00,VWS V14.01,2013-03-17 05:03:00,
2013-03-17 01:08:00,47.1,41.3,29.91,North,0,2.0,3.8,80,0.00,,OVC014,0.00,VWS V14.01,2013-03-17 05:08:00,
2013-03-17 01:13:00,46.9,40.8,29.91,WNW,292,0.0,1.3,79,0.00,,OVC014,0.00,VWS V14.01,2013-03-17 05:13:00,
2013-03-17 01:18:00,46.6,40.4,29.94,NW,315,0.0,2.0,79,0.00,,OVC014,0.00,VWS V14.01,2013-03-17 05:18:00,
2013-03-17 01:23:00,46.6,41.1,29.94,North,0,2.5,3.4,81,0.00,,OVC014,0.00,VWS V14.01,2013-03-17 05:23:00,
2013-03-17 01:28:00,46.8,41.2,29.94,NW,315,2.5,2.7,81,0.00,,OVC014,0.00,VWS V14.01,2013-03-17 05:28:00,
2013-03-17 01:33:00,46.8,41.2,29.94,NNW,338,1.1,2.9,81,0.00,,OVC014,0.00,VWS V14.01,2013-03-17 05:33:00,
2013-03-17 01:38:00,46.6,41.1,29.94,North,0,2.7,2.7,81,0.00,,OVC014,0.00,VWS V14.01,2013-03-17 05:38:00,
2013-03-17 01:43:00,46.2,40.7,29.94,East,90,2.2,2.5,81,0.00,,OVC014,0.00,VWS V14.01,2013-03-17 05:43:00,
2013-03-17 01:48:00,46.2,40.7,29.94,NNE,22,2.0,2.9,81,0.00,,OVC014,0.00,VWS V14.01,2013-03-17 05:48:00,
2013-03-17 01:53:00,46.2,41.0,29.94,NW,315,2.7,2.7,82,0.00,,OVC014,0.00,VWS V14.01,2013-03-17 05:53:00,
2013-03-17 01:58:00,46.4,41.2,29.94,NNE,22,1.6,3.4,82,0.00,,OVC014,0.00,VWS V14.01,2013-03-17 05:58:00,
2013-03-17 02:03:00,46.4,40.9,29.94,WSW,248,1.1,6.0,81,0.00,,OVC014,0.00,VWS V14.01,2013-03-17 06:03:00,
2013-03-17 02:08:00,46.4,40.6,29.94,NNW,338,3.1,3.6,80,0.00,,OVC014,0.00,VWS V14.01,2013-03-17 06:08:00,
2013-03-17 02:13:00,46.2,40.4,29.94,West,270,1.3,2.0,80,0.00,,OVC014,0.00,VWS V14.01,2013-03-17 06:13:00,
2013-03-17 02:18:00,46.0,40.2,29.97,West,270,2.5,3.4,80,0.00,,OVC014,0.00,VWS V14.01,2013-03-17 06:18:00,
2013-03-17 02:23:00,46.2,40.4,29.97,North,0,0.0,3.6,80,0.00,,OVC014,0.00,VWS V14.01,2013-03-17 06:23:00,
2013-03-17 02:28:00,46.0,40.2,29.97,North,0,2.5,2.5,80,0.00,,OVC014,0.00,VWS V14.01,2013-03-17 06:28:00,
2013-03-17 02:33:00,46.0,40.2,29.97,WNW,292,2.0,2.2,80,0.00,,OVC014,0.00,VWS V14.01,2013-03-17 06:33:00,
2013-03-17 02:38:00,46.0,40.2,29.97,NW,315,0.0,2.9,80,0.00,,OVC014,0.00,VWS V14.01,2013-03-17 06:38:00,
2013-03-17 02:43:00,46.0,40.2,29.97,NE,45,1.1,1.3,80,0.00,,OVC014,0.00,VWS V14.01,2013-03-17 06:43:00,
2013-03-17 02:48:00,46.0,40.2,29.97,South,180,0.0,2.2,80,0.00,,OVC014,0.00,VWS V14.01,2013-03-17 06:48:00,
2013-03-17 02:53:00,46.0,40.2,29.97,East,90,0.9,2.7,80,0.00,,OVC014,0.00,VWS V14.01,2013-03-17 06:53:00,
2013-03-17 02:58:00,45.9,40.0,29.97,West,270,0.0,3.4,80,0.00,,OVC014,0.00,VWS V14.01,2013-03-17 06:58:00,
2013-03-17 03:03:00,45.9,40.0,29.97,West,270,0.0,3.1,80,0.00,,OVC014,0.00,VWS V14.01,2013-03-17 07:03:00,
2013-03-17 03:08:00,45.7,40.5,29.97,SW,225,1.3,1.3,82,0.00,,OVC014,0.00,VWS V14.01,2013-03-17 07:08:00,
2013-03-17 03:13:00,45.5,40.3,29.97,North,0,0.0,2.5,82,0.00,,OVC014,0.00,VWS V14.01,2013-03-17 07:13:00,
2013-03-17 03:18:00,45.0,39.8,29.97,NW,315,1.6,1.6,82,0.00,,OVC014,0.00,VWS V14.01,2013-03-17 07:18:00,
2013-03-17 03:23:00,44.6,39.5,29.97,NW,315,0.0,2.0,82,0.00,,OVC014,0.00,VWS V14.01,2013-03-17 07:23:00,
2013-03-17 03:28:00,44.6,39.8,29.97,NE,45,0.0,2.2,83,0.00,,OVC014,0.00,VWS V14.01,2013-03-17 07:28:00,
2013-03-17 03:33:00,44.4,39.6,29.94,NW,315,0.0,1.6,83,0.00,,OVC014,0.00,VWS V14.01,2013-03-17 07:33:00,
2013-03-17 03:38:00,44.2,39.4,29.94,West,270,0.9,1.1,83,0.00,,OVC014,0.00,VWS V14.01,2013-03-17 07:38:00,
2013-03-17 03:43:00,43.9,39.1,29.94,NNW,338,2.0,2.0,83,0.00,,OVC014,0.00,VWS V14.01,2013-03-17 07:43:00,
2013-03-17 03:48:00,43.9,39.4,29.94,NW,315,0.0,2.0,84,0.00,,OVC014,0.00,VWS V14.01,2013-03-17 07:48:00,
2013-03-17 03:53:00,43.9,40.0,29.94,NNE,22,1.1,2.2,86,0.00,,OVC014,0.00,VWS V14.01,2013-03-17 07:53:00,
2013-03-17 03:58:00,44.1,40.5,29.94,NE,45,2.0,2.2,87,0.00,,OVC014,0.00,VWS V14.01,2013-03-17 07:58:00,
2013-03-17 04:03:00,44.1,40.7,29.94,East,90,2.5,2.9,88,0.00,,OVC012,0.00,VWS V14.01,2013-03-17 08:03:00,
2013-03-17 04:08:00,44.1,41.0,29.94,East,90,1.3,2.5,89,0.00,,OVC012,0.00,VWS V14.01,2013-03-17 08:08:00,
2013-03-17 04:13:00,43.9,40.6,29.94,East,90,1.6,2.5,88,0.00,,OVC012,0.00,VWS V14.01,2013-03-17 08:13:00,
2013-03-17 04:18:00,43.5,40.5,29.91,East,90,0.0,1.6,89,0.00,,OVC012,0.00,VWS V14.01,2013-03-17 08:18:00,
2013-03-17 04:23:00,43.3,40.3,29.91,East,90,0.0,2.0,89,0.00,,OVC012,0.00,VWS V14.01,2013-03-17 08:23:00,
2013-03-17 04:28:00,43.0,39.7,29.91,NW,315,0.9,2.0,88,0.00,,OVC012,0.00,VWS V14.01,2013-03-17 08:28:00,
2013-03-17 04:33:00,42.8,39.8,29.91,NW,315,0.0,0.0,89,0.00,,OVC012,0.00,VWS V14.01,2013-03-17 08:33:00,
2013-03-17 04:38:00,42.6,39.6,29.91,NW,315,0.0,0.0,89,0.00,,OVC012,0.00,VWS V14.01,2013-03-17 08:38:00,
2013-03-17 04:43:00,42.6,39.3,29.91,NW,315,0.0,0.0,88,0.00,,OVC012,0.00,VWS V14.01,2013-03-17 08:43:00,
2013-03-17 04:48:00,42.6,39.3,29.94,SSW,202,0.0,2.5,88,0.00,,OVC012,0.00,VWS V14.01,2013-03-17 08:48:00,
2013-03-17 04:53:00,42.8,40.1,29.94,ENE,68,2.0,2.0,90,0.00,,OVC012,0.00,VWS V14.01,2013-03-17 08:53:00,
2013-03-17 04:58:00,42.8,40.9,29.94,ESE,112,2.0,2.2,93,0.00,,OVC012,0.00,VWS V14.01,2013-03-17 08:58:00,
2013-03-17 05:03:00,43.3,41.5,29.94,NW,315,0.9,2.2,93,0.00,,OVC110,0.00,VWS V14.01,2013-03-17 09:03:00,
2013-03-17 05:08:00,43.3,41.2,29.94,North,0,0.0,1.3,92,0.00,,OVC110,0.00,VWS V14.01,2013-03-17 09:08:00,
2013-03-17 05:13:00,43.2,41.0,29.94,North,0,0.0,2.0,92,0.00,,OVC110,0.00,VWS V14.01,2013-03-17 09:13:00,
2013-03-17 05:18:00,43.2,40.7,29.94,NW,315,0.0,1.1,91,0.00,,OVC110,0.00,VWS V14.01,2013-03-17 09:18:00,
2013-03-17 05:23:00,43.2,40.7,29.94,NNW,338,0.0,0.0,91,0.00,,OVC110,0.00,VWS V14.01,2013-03-17 09:23:00,
2013-03-17 05:28:00,43.3,40.6,29.94,South,180,0.0,1.6,90,0.00,,OVC110,0.00,VWS V14.01,2013-03-17 09:28:00,
2013-03-17 05:33:00,43.5,41.1,29.94,SSE,158,1.6,2.5,91,0.00,,OVC110,0.00,VWS V14.01,2013-03-17 09:33:00,
2013-03-17 05:38:00,43.5,41.3,29.94,South,180,0.0,2.2,92,0.00,,OVC110,0.00,VWS V14.01,2013-03-17 09:38:00,
2013-03-17 05:43:00,43.5,41.1,29.94,SW,225,0.0,1.1,91,0.00,,OVC110,0.00,VWS V14.01,2013-03-17 09:43:00,
2013-03-17 05:48:00,43.5,41.1,29.97,SSW,202,0.0,1.3,91,0.00,,OVC110,0.00,VWS V14.01,2013-03-17 09:48:00,
2013-03-17 05:53:00,43.7,41.0,29.97,SSW,202,0.0,0.0,90,0.00,,OVC110,0.00,VWS V14.01,2013-03-17 09:53:00,
2013-03-17 05:58:00,43.7,41.2,29.97,East,90,1.6,1.6,91,0.00,,OVC110,0.00,VWS V14.01,2013-03-17 09:58:00,
2013-03-17 06:03:00,43.7,41.2,29.94,East,90,1.6,2.7,91,0.00,,OVC015,0.00,VWS V14.01,2013-03-17 10:03:00,
2013-03-17 06:08:00,43.7,41.0,29.94,East,90,0.0,2.0,90,0.00,,OVC015,0.00,VWS V14.01,2013-03-17 10:08:00,
2013-03-17 06:13:00,43.5,40.5,29.94,SW,225,1.3,1.3,89,0.00,,OVC015,0.00,VWS V14.01,2013-03-17 10:13:00,
2013-03-17 06:18:00,43.7,40.7,29.97,SW,225,0.0,1.3,89,0.00,,OVC015,0.00,VWS V14.01,2013-03-17 10:18:00,
2013-03-17 06:23:00,43.5,40.5,29.97,SSW,202,0.0,0.0,89,0.00,,OVC015,0.00,VWS V14.01,2013-03-17 10:23:00,
2013-03-17 06:28:00,43.5,40.5,29.97,NW,315,0.0,0.0,89,0.00,,OVC015,0.00,VWS V14.01,2013-03-17 10:28:00,
2013-03-17 06:33:00,43.5,40.5,29.97,NW,315,0.0,2.0,89,0.00,,OVC015,0.00,VWS V14.01,2013-03-17 10:33:00,
2013-03-17 06:38:00,43.5,40.8,29.97,North,0,0.0,1.1,90,0.00,,OVC015,0.00,VWS V14.01,2013-03-17 10:38:00,
2013-03-17 06:43:00,43.5,40.5,29.97,NW,315,0.0,0.0,89,0.00,,OVC015,0.00,VWS V14.01,2013-03-17 10:43:00,
2013-03-17 06:48:00,43.5,40.5,29.97,NW,315,0.0,0.0,89,0.00,,OVC015,0.00,VWS V14.01,2013-03-17 10:48:00,
2013-03-17 06:53:00,43.3,40.3,29.97,NW,315,0.0,1.3,89,0.00,,OVC015,0.00,VWS V14.01,2013-03-17 10:53:00,
2013-03-17 06:58:00,43.5,40.5,29.97,NW,315,0.0,0.9,89,0.00,,OVC015,0.00,VWS V14.01,2013-03-17 10:58:00,
2013-03-17 07:03:00,43.5,40.5,29.94,NW,315,0.0,1.3,89,0.00,,OVC070,0.00,VWS V14.01,2013-03-17 11:03:00,
2013-03-17 07:08:00,43.3,40.6,29.94,NW,315,0.0,0.0,90,0.00,,OVC070,0.00,VWS V14.01,2013-03-17 11:08:00,
2013-03-17 07:13:00,43.5,40.5,29.94,WSW,248,0.0,2.0,89,0.00,,OVC070,0.00,VWS V14.01,2013-03-17 11:13:00,
2013-03-17 07:18:00,43.5,40.2,30.00,WSW,248,0.0,2.0,88,0.00,,OVC070,0.00,VWS V14.01,2013-03-17 11:18:00,
2013-03-17 07:23:00,43.3,40.0,30.00,WNW,292,0.9,1.3,88,0.00,,OVC070,0.00,VWS V14.01,2013-03-17 11:23:00,
2013-03-17 07:28:00,43.3,40.0,30.00,North,0,1.3,1.6,88,0.00,,OVC070,0.00,VWS V14.01,2013-03-17 11:28:00,
2013-03-17 07:33:00,43.3,40.9,30.00,East,90,0.9,2.7,91,0.00,,OVC070,0.00,VWS V14.01,2013-03-17 11:33:00,
2013-03-17 07:38:00,43.0,40.5,30.00,NNW,338,0.0,0.9,91,0.04,,OVC070,0.04,VWS V14.01,2013-03-17 11:38:00,
2013-03-17 07:43:00,42.8,40.4,30.00,North,0,2.2,2.7,91,0.04,,OVC070,0.04,VWS V14.01,2013-03-17 11:43:00,
2013-03-17 07:48:00,42.8,40.4,30.03,NW,315,1.3,2.5,91,0.04,,OVC070,0.04,VWS V14.01,2013-03-17 11:48:00,
2013-03-17 07:53:00,42.8,40.1,30.03,NNE,22,1.6,2.9,90,0.04,,OVC070,0.04,VWS V14.01,2013-03-17 11:53:00,
2013-03-17 07:58:00,42.8,40.4,30.03,NW,315,2.5,3.1,91,0.04,,OVC070,0.04,VWS V14.01,2013-03-17 11:58:00,
2013-03-17 08:03:00,42.8,40.4,30.03,NW,315,1.1,2.2,91,0.04,,OVC070,0.04,VWS V14.01,2013-03-17 12:03:00,
2013-03-17 08:08:00,42.8,40.6,30.03,NW,315,2.9,3.6,92,0.04,,OVC070,0.04,VWS V14.01,2013-03-17 12:08:00,
2013-03-17 08:13:00,42.8,40.6,30.03,NNW,338,2.0,2.7,92,0.04,,OVC070,0.04,VWS V14.01,2013-03-17 12:13:00,
2013-03-17 08:18:00,42.8,40.9,30.03,NNW,338,1.6,5.6,93,0.04,,OVC070,0.04,VWS V14.01,2013-03-17 12:18:00,
2013-03-17 08:23:00,42.8,40.9,30.03,NW,315,1.1,4.9,93,0.04,,OVC070,0.04,VWS V14.01,2013-03-17 12:23:00,
2013-03-17 08:28:00,42.8,40.9,30.03,North,0,3.6,4.9,93,0.04,,OVC070,0.04,VWS V14.01,2013-03-17 12:28:00,
2013-03-17 08:33:00,42.8,40.9,30.03,WNW,292,1.3,5.4,93,0.04,,,0.04,VWS V14.01,2013-03-17 12:33:00,
2013-03-17 08:38:00,42.8,40.9,30.03,WNW,292,2.2,3.4,93,0.04,,,0.04,VWS V14.01,2013-03-17 12:38:00,
2013-03-17 08:43:00,42.6,40.7,30.03,NNW,338,1.3,4.3,93,0.00,,,0.04,VWS V14.01,2013-03-17 12:43:00,
2013-03-17 08:48:00,42.4,40.6,30.03,West,270,1.6,3.8,93,0.00,,,0.04,VWS V14.01,2013-03-17 12:48:00,
2013-03-17 08:53:00,42.4,40.6,30.03,WNW,292,1.3,2.7,93,0.00,,,0.04,VWS V14.01,2013-03-17 12:53:00,
2013-03-17 08:58:00,42.4,40.6,30.03,WNW,292,0.9,2.7,93,0.00,,,0.04,VWS V14.01,2013-03-17 12:58:00,
2013-03-17 09:03:00,42.4,40.3,30.03,West,270,1.6,2.9,92,0.00,,-RA,0.04,VWS V14.01,2013-03-17 13:03:00,
2013-03-17 09:08:00,42.3,40.1,30.03,NNW,338,3.1,3.1,92,0.00,,-RA,0.04,VWS V14.01,2013-03-17 13:08:00,
2013-03-17 09:13:00,42.3,40.1,30.03,SW,225,0.0,2.7,92,0.00,,-RA,0.04,VWS V14.01,2013-03-17 13:13:00,
2013-03-17 09:18:00,42.1,39.9,30.03,NW,315,2.5,2.5,92,0.00,,-RA,0.04,VWS V14.01,2013-03-17 13:18:00,
2013-03-17 09:23:00,42.1,39.9,30.03,WNW,292,2.5,3.4,92,0.00,,-RA,0.04,VWS V14.01,2013-03-17 13:23:00,
2013-03-17 09:28:00,41.9,39.8,30.03,WNW,292,2.0,3.4,92,0.00,,-RA,0.04,VWS V14.01,2013-03-17 13:28:00,
2013-03-17 09:33:00,41.9,39.8,30.03,NW,315,1.6,2.7,92,0.00,,-RA,0.04,VWS V14.01,2013-03-17 13:33:00,
2013-03-17 09:38:00,41.9,39.8,30.03,West,270,1.3,3.4,92,0.00,,-RA,0.04,VWS V14.01,2013-03-17 13:38:00,
2013-03-17 09:43:00,41.7,39.6,30.03,NW,315,2.2,3.4,92,0.00,,-RA,0.04,VWS V14.01,2013-03-17 13:43:00,
2013-03-17 09:48:00,41.5,39.4,30.06,West,270,2.9,3.8,92,0.00,,-RA,0.04,VWS V14.01,2013-03-17 13:48:00,
2013-03-17 09:53:00,41.5,39.4,30.06,WNW,292,3.6,3.8,92,0.00,,-RA,0.04,VWS V14.01,2013-03-17 13:53:00,
2013-03-17 09:58:00,41.5,39.7,30.06,NW,315,1.1,3.6,93,0.00,,-RA,0.04,VWS V14.01,2013-03-17 13:58:00,
2013-03-17 10:03:00,41.5,39.7,30.06,West,270,1.3,3.1,93,0.00,,-RA,0.04,VWS V14.01,2013-03-17 14:03:00,
2013-03-17 10:08:00,41.5,39.7,30.06,WSW,248,1.1,2.0,93,0.00,,-RA,0.04,VWS V14.01,2013-03-17 14:08:00,
2013-03-17 10:13:00,41.5,39.7,30.06,WNW,292,1.1,2.7,93,0.00,,-RA,0.04,VWS V14.01,2013-03-17 14:13:00,
2013-03-17 10:18:00,41.4,39.5,30.06,NW,315,2.0,3.8,93,0.00,,-RA,0.04,VWS V14.01,2013-03-17 14:18:00,
2013-03-17 10:23:00,41.7,39.8,30.06,NW,315,0.9,1.6,93,0.00,,-RA,0.04,VWS V14.01,2013-03-17 14:23:00,
2013-03-17 10:28:00,41.9,40.0,30.06,West,270,2.5,2.5,93,0.00,,-RA,0.04,VWS V14.01,2013-03-17 14:28:00,
2013-03-17 10:33:00,41.7,39.8,30.06,NNW,338,2.0,2.5,93,0.04,,-RA,0.08,VWS V14.01,2013-03-17 14:33:00,
2013-03-17 10:38:00,41.7,39.8,30.06,West,270,0.9,3.1,93,0.04,,-RA,0.08,VWS V14.01,2013-03-17 14:38:00,
2013-03-17 10:43:00,42.1,40.2,30.06,West,270,0.0,0.9,93,0.04,,-RA,0.08,VWS V14.01,2013-03-17 14:43:00,
2013-03-17 10:48:00,42.1,40.2,30.06,WNW,292,0.0,2.2,93,0.04,,-RA,0.08,VWS V14.01,2013-03-17 14:48:00,
2013-03-17 10:53:00,42.3,40.4,30.06,NW,315,0.9,2.7,93,0.04,,-RA,0.08,VWS V14.01,2013-03-17 14:53:00,
2013-03-17 10:58:00,42.3,40.1,30.06,West,270,2.0,2.9,92,0.04,,-RA,0.08,VWS V14.01,2013-03-17 14:58:00,
2013-03-17 11:03:00,42.3,40.1,30.06,NW,315,2.0,4.7,92,0.04,,,0.08,VWS V14.01,2013-03-17 15:03:00,
2013-03-17 11:08:00,42.3,39.8,30.06,WSW,248,1.3,3.6,91,0.04,,,0.08,VWS V14.01,2013-03-17 15:08:00,
2013-03-17 11:13:00,42.3,39.8,30.06,NNW,338,1.6,4.7,91,0.04,,,0.08,VWS V14.01,2013-03-17 15:13:00,
2013-03-17 11:18:00,42.6,40.2,30.06,WNW,292,1.1,2.5,91,0.04,,,0.08,VWS V14.01,2013-03-17 15:18:00,
2013-03-17 11:23:00,42.6,40.2,30.06,NNE,22,2.7,3.4,91,0.04,,,0.08,VWS V14.01,2013-03-17 15:23:00,
2013-03-17 11:28:00,42.6,39.9,30.06,NNW,338,1.6,4.0,90,0.04,,,0.08,VWS V14.01,2013-03-17 15:28:00,
2013-03-17 11:33:00,43.0,40.0,30.06,NW,315,0.0,3.1,89,0.04,,,0.08,VWS V14.01,2013-03-17 15:33:00,
2013-03-17 11:38:00,43.3,40.3,30.06,NW,315,0.9,1.3,89,0.00,,,0.08,VWS V14.01,2013-03-17 15:38:00,
2013-03-17 11:43:00,43.5,40.2,30.06,South,180,2.0,2.5,88,0.00,,,0.08,VWS V14.01,2013-03-17 15:43:00,
2013-03-17 11:48:00,44.1,40.7,30.06,WNW,292,1.1,2.5,88,0.00,,,0.08,VWS V14.01,2013-03-17 15:48:00,
2013-03-17 11:53:00,44.2,40.6,30.06,West,270,0.9,2.5,87,0.00,,,0.08,VWS V14.01,2013-03-17 15:53:00,
2013-03-17 11:58:00,44.4,40.8,30.06,NW,315,0.0,1.3,87,0.00,,,0.08,VWS V14.01,2013-03-17 15:58:00,
2013-03-17 12:03:00,44.6,40.7,30.06,NW,315,2.0,2.7,86,0.00,,,0.08,VWS V14.01,2013-03-17 16:03:00,
2013-03-17 12:08:00,44.6,40.4,30.06,NW,315,0.0,2.2,85,0.00,,,0.08,VWS V14.01,2013-03-17 16:08:00,
2013-03-17 12:13:00,45.1,40.9,30.06,WNW,292,0.0,1.3,85,0.00,,,0.08,VWS V14.01,2013-03-17 16:13:00,
2013-03-17 12:18:00,45.1,40.9,30.06,West,270,1.6,2.2,85,0.00,,,0.08,VWS V14.01,2013-03-17 16:18:00,
2013-03-17 12:23:00,44.8,40.2,30.06,WNW,292,0.0,2.7,84,0.00,,,0.08,VWS V14.01,2013-03-17 16:23:00,
2013-03-17 12:28:00,44.8,40.2,30.06,West,270,0.0,1.3,84,0.00,,,0.08,VWS V14.01,2013-03-17 16:28:00,
2013-03-17 12:33:00,45.0,40.4,30.06,NW,315,1.3,2.7,84,0.00,,,0.08,VWS V14.01,2013-03-17 16:33:00,
2013-03-17 12:38:00,44.8,39.9,30.06,NNE,22,0.0,2.5,83,0.00,,,0.08,VWS V14.01,2013-03-17 16:38:00,
2013-03-17 12:43:00,44.4,39.3,30.06,North,0,1.1,2.7,82,0.00,,,0.08,VWS V14.01,2013-03-17 16:43:00,
2013-03-17 12:48:00,44.8,39.6,30.06,North,0,0.0,1.6,82,0.00,,,0.08,VWS V14.01,2013-03-17 16:48:00,
2013-03-17 12:53:00,45.1,40.3,30.06,NW,315,0.9,2.0,83,0.00,,,0.08,VWS V14.01,2013-03-17 16:53:00,
2013-03-17 12:58:00,45.5,40.7,30.06,WNW,292,1.1,1.1,83,0.00,,,0.08,VWS V14.01,2013-03-17 16:58:00,
2013-03-17 13:03:00,45.5,40.7,30.03,WSW,248,0.0,1.3,83,0.00,,OVC004,0.08,VWS V14.01,2013-03-17 17:03:00,
2013-03-17 13:08:00,46.0,40.9,30.03,WNW,292,0.0,1.6,82,0.00,,OVC004,0.08,VWS V14.01,2013-03-17 17:08:00,
2013-03-17 13:13:00,46.4,41.2,30.03,West,270,2.5,2.5,82,0.00,,OVC004,0.08,VWS V14.01,2013-03-17 17:13:00,
2013-03-17 13:18:00,46.2,40.7,30.03,NW,315,3.1,3.4,81,0.00,,OVC004,0.08,VWS V14.01,2013-03-17 17:18:00,
2013-03-17 13:23:00,46.2,40.4,30.03,NNW,338,2.7,3.1,80,0.00,,OVC004,0.08,VWS V14.01,2013-03-17 17:23:00,
2013-03-17 13:28:00,46.0,39.9,30.03,NNW,338,1.6,2.2,79,0.00,,OVC004,0.08,VWS V14.01,2013-03-17 17:28:00,
2013-03-17 13:33:00,45.9,39.4,30.03,NW,315,2.2,2.9,78,0.00,,OVC004,0.08,VWS V14.01,2013-03-17 17:33:00,
2013-03-17 13:38:00,46.0,39.6,30.03,NE,45,0.0,2.2,78,0.00,,OVC004,0.08,VWS V14.01,2013-03-17 17:38:00,
2013-03-17 13:43:00,46.0,40.2,30.03,North,0,0.9,2.0,80,0.00,,OVC004,0.08,VWS V14.01,2013-03-17 17:43:00,
2013-03-17 13:48:00,46.0,39.6,30.06,NW,315,1.6,2.7,78,0.00,,OVC004,0.08,VWS V14.01,2013-03-17 17:48:00,
2013-03-17 13:53:00,45.9,39.1,30.06,NNW,338,2.0,3.4,77,0.00,,OVC004,0.08,VWS V14.01,2013-03-17 17:53:00,
2013-03-17 13:58:00,45.7,38.9,30.06,NW,315,1.1,3.8,77,0.00,,OVC004,0.08,VWS V14.01,2013-03-17 17:58:00,
2013-03-17 14:03:00,45.9,39.1,30.03,North,0,0.0,2.9,77,0.00,,OVC036,0.08,VWS V14.01,2013-03-17 18:03:00,
2013-03-17 14:08:00,45.5,38.7,30.03,West,270,2.9,4.7,77,0.00,,OVC036,0.08,VWS V14.01,2013-03-17 18:08:00,
2013-03-17 14:13:00,45.5,38.7,30.03,NW,315,2.0,3.6,77,0.00,,OVC036,0.08,VWS V14.01,2013-03-17 18:13:00,
2013-03-17 14:18:00,45.3,38.5,30.03,NNW,338,0.9,4.0,77,0.00,,OVC036,0.08,VWS V14.01,2013-03-17 18:18:00,
2013-03-17 14:23:00,45.0,38.2,30.03,NW,315,2.9,4.3,77,0.00,,OVC036,0.08,VWS V14.01,2013-03-17 18:23:00,
2013-03-17 14:28:00,45.0,38.2,30.03,West,270,1.1,6.3,77,0.00,,OVC036,0.08,VWS V14.01,2013-03-17 18:28:00,
2013-03-17 14:33:00,44.6,37.8,30.03,West,270,3.6,5.6,77,0.00,,OVC036,0.08,VWS V14.01,2013-03-17 18:33:00,
2013-03-17 14:38:00,44.4,37.7,30.03,WSW,248,1.1,5.4,77,0.00,,OVC036,0.08,VWS V14.01,2013-03-17 18:38:00,
2013-03-17 14:43:00,44.4,38.0,30.03,NNW,338,2.5,6.0,78,0.00,,OVC036,0.08,VWS V14.01,2013-03-17 18:43:00,
2013-03-17 14:48:00,44.1,37.7,30.03,North,0,4.0,5.4,78,0.00,,OVC036,0.08,VWS V14.01,2013-03-17 18:48:00,
2013-03-17 14:53:00,43.7,37.3,30.03,North,0,2.0,6.3,78,0.00,,OVC036,0.08,VWS V14.01,2013-03-17 18:53:00,
2013-03-17 14:58:00,43.7,37.3,30.03,NW,315,2.9,4.3,78,0.00,,OVC036,0.08,VWS V14.01,2013-03-17 18:58:00,
2013-03-17 15:03:00,43.7,37.6,30.03,NW,315,2.9,3.4,79,0.00,,OVC036,0.08,VWS V14.01,2013-03-17 19:03:00,
2013-03-17 15:08:00,43.9,37.8,30.03,NNW,338,2.0,3.8,79,0.00,,OVC036,0.08,VWS V14.01,2013-03-17 19:08:00,
2013-03-17 15:13:00,43.7,37.3,30.03,WNW,292,3.4,3.8,78,0.00,,OVC036,0.08,VWS V14.01,2013-03-17 19:13:00,
2013-03-17 15:18:00,43.9,37.5,30.03,NW,315,2.0,3.4,78,0.00,,OVC036,0.08,VWS V14.01,2013-03-17 19:18:00,
2013-03-17 15:23:00,44.1,37.7,30.03,NW,315,1.1,2.7,78,0.00,,OVC036,0.08,VWS V14.01,2013-03-17 19:23:00,
2013-03-17 15:28:00,44.1,37.7,30.03,NNW,338,0.9,4.7,78,0.00,,OVC036,0.08,VWS V14.01,2013-03-17 19:28:00,
2013-03-17 15:33:00,44.1,37.7,30.00,NW,315,2.0,3.8,78,0.00,,OVC036,0.08,VWS V14.01,2013-03-17 19:33:00,
2013-03-17 15:38:00,44.1,37.7,30.00,NNW,338,2.7,4.0,78,0.00,,OVC036,0.08,VWS V14.01,2013-03-17 19:38:00,
2013-03-17 15:43:00,44.2,37.8,30.00,NW,315,2.9,3.4,78,0.00,,OVC036,0.08,VWS V14.01,2013-03-17 19:43:00,
2013-03-17 15:48:00,44.2,37.8,30.00,NNW,338,2.7,3.1,78,0.00,,OVC036,0.08,VWS V14.01,2013-03-17 19:48:00,
2013-03-17 15:53:00,44.2,37.8,30.00,WNW,292,3.1,4.9,78,0.00,,OVC036,0.08,VWS V14.01,2013-03-17 19:53:00,
2013-03-17 15:58:00,44.4,38.0,30.00,NW,315,4.0,5.4,78,0.00,,OVC036,0.08,VWS V14.01,2013-03-17 19:58:00,
2013-03-17 16:03:00,44.2,37.5,30.00,NNW,338,0.9,6.0,77,0.00,,OVC034,0.08,VWS V14.01,2013-03-17 20:03:00,
2013-03-17 16:08:00,44.8,38.0,30.00,WNW,292,2.5,3.6,77,0.00,,OVC034,0.08,VWS V14.01,2013-03-17 20:08:00,
2013-03-17 16:13:00,44.8,37.7,30.00,NNW,338,6.0,6.0,76,0.00,,OVC034,0.08,VWS V14.01,2013-03-17 20:13:00,
2013-03-17 16:16:00,44.1,37.3,30.03,NW,315,2.2,2.2,77,0.00,,OVC005,0.08,VWS V14.01,2013-03-17 20:16:00,
2013-03-17 16:17:00,44.1,37.3,30.03,NW,315,2.5,2.5,77,0.00,,OVC005,0.08,VWS V14.01,2013-03-17 20:17:00,
2013-03-17 16:18:00,44.6,37.5,30.03,NE,45,4.0,6.0,76,0.00,,OVC034,0.08,VWS V14.01,2013-03-17 20:18:00,
2013-03-17 16:19:00,44.1,37.3,30.00,WNW,292,1.1,2.5,77,0.00,,OVC005,0.08,VWS V14.01,2013-03-17 20:19:00,
2013-03-17 16:20:00,44.1,37.3,30.00,NW,315,1.1,1.6,77,0.00,,OVC005,0.08,VWS V14.01,2013-03-17 20:20:00,
2013-03-17 16:23:00,44.4,37.3,30.03,NW,315,1.1,7.4,76,0.00,,OVC034,0.08,VWS V14.01,2013-03-17 20:23:00,
2013-03-17 16:28:00,44.4,37.7,30.03,NNW,338,1.6,4.9,77,0.00,,OVC034,0.08,VWS V14.01,2013-03-17 20:28:00,
2013-03-17 16:33:00,44.6,37.5,30.00,NW,315,2.2,3.6,76,0.00,,OVC034,0.08,VWS V14.01,2013-03-17 20:33:00,
2013-03-17 16:38:00,44.6,37.8,30.00,NW,315,2.5,3.4,77,0.00,,OVC034,0.08,VWS V14.01,2013-03-17 20:38:00,
2013-03-17 16:43:00,44.8,38.0,30.00,NW,315,4.9,4.9,77,0.00,,OVC034,0.08,VWS V14.01,2013-03-17 20:43:00,
2013-03-17 16:48:00,44.4,37.7,30.00,NW,315,3.1,5.6,77,0.00,,OVC034,0.08,VWS V14.01,2013-03-17 20:48:00,
2013-03-17 16:53:00,44.4,37.7,30.00,NNW,338,2.9,2.9,77,0.00,,OVC034,0.08,VWS V14.01,2013-03-17 20:53:00,
2013-03-17 16:58:00,43.9,36.8,30.00,NW,315,2.9,6.3,76,0.00,,OVC034,0.08,VWS V14.01,2013-03-17 20:58:00,
2013-03-17 17:03:00,43.9,37.2,30.03,NNE,22,2.7,6.0,77,0.00,,OVC005,0.08,VWS V14.01,2013-03-17 21:03:00,
2013-03-17 17:08:00,44.1,37.3,30.03,NW,315,3.4,5.8,77,0.00,,OVC005,0.08,VWS V14.01,2013-03-17 21:08:00,
2013-03-17 17:13:00,43.9,37.2,30.03,WNW,292,1.1,4.3,77,0.00,,OVC005,0.08,VWS V14.01,2013-03-17 21:13:00,
2013-03-17 17:18:00,44.1,37.3,30.00,NW,315,1.6,2.5,77,0.00,,OVC005,0.08,VWS V14.01,2013-03-17 21:18:00,
2013-03-17 17:23:00,44.1,37.3,30.00,West,270,2.7,3.6,77,0.00,,OVC005,0.08,VWS V14.01,2013-03-17 21:23:00,
2013-03-17 17:28:00,43.9,37.2,30.00,WNW,292,3.4,4.3,77,0.00,,OVC005,0.08,VWS V14.01,2013-03-17 21:28:00,
2013-03-17 17:33:00,43.7,37.3,30.03,NW,315,3.6,5.4,78,0.00,,OVC005,0.08,VWS V14.01,2013-03-17 21:33:00,
2013-03-17 17:38:00,43.5,37.1,30.03,NW,315,3.1,4.7,78,0.00,,OVC005,0.08,VWS V14.01,2013-03-17 21:38:00,
2013-03-17 17:43:00,43.5,37.1,30.03,NW,315,0.0,3.4,78,0.00,,OVC005,0.08,VWS V14.01,2013-03-17 21:43:00,
2013-03-17 17:48:00,43.3,37.3,30.03,West,270,2.9,3.6,79,0.00,,OVC005,0.08,VWS V14.01,2013-03-17 21:48:00,
2013-03-17 17:53:00,43.2,36.8,30.03,West,270,2.7,4.0,78,0.00,,OVC005,0.08,VWS V14.01,2013-03-17 21:53:00,
2013-03-17 17:58:00,43.2,37.1,30.03,WNW,292,2.9,3.1,79,0.00,,OVC005,0.08,VWS V14.01,2013-03-17 21:58:00,
2013-03-17 18:03:00,43.0,36.9,30.03,NW,315,3.4,3.4,79,0.00,,OVC027,0.08,VWS V14.01,2013-03-17 22:03:00,
2013-03-17 18:08:00,42.8,36.8,30.03,West,270,3.8,3.8,79,0.00,,OVC027,0.08,VWS V14.01,2013-03-17 22:08:00,
2013-03-17 18:13:00,42.8,37.1,30.03,WNW,292,0.0,5.4,80,0.00,,OVC027,0.08,VWS V14.01,2013-03-17 22:13:00,
2013-03-17 18:18:00,42.6,36.9,30.03,NW,315,2.9,2.9,80,0.00,,OVC027,0.08,VWS V14.01,2013-03-17 22:18:00,
2013-03-17 18:23:00,42.6,37.2,30.03,North,0,0.0,3.1,81,0.00,,OVC027,0.08,VWS V14.01,2013-03-17 22:23:00,
2013-03-17 18:28:00,42.4,37.0,30.03,WNW,292,2.9,4.0,81,0.00,,OVC027,0.08,VWS V14.01,2013-03-17 22:28:00,
2013-03-17 18:33:00,42.4,37.0,30.03,NW,315,2.7,2.9,81,0.00,,OVC027,0.08,VWS V14.01,2013-03-17 22:33:00,
2013-03-17 18:38:00,42.3,37.2,30.03,WSW,248,5.4,5.4,82,0.00,,OVC027,0.08,VWS V14.01,2013-03-17 22:38:00,
2013-03-17 18:43:00,42.1,37.0,30.03,NNW,338,3.1,5.4,82,0.00,,OVC027,0.08,VWS V14.01,2013-03-17 22:43:00,
2013-03-17 18:48:00,42.1,37.3,30.03,West,270,2.7,6.0,83,0.00,,OVC027,0.08,VWS V14.01,2013-03-17 22:48:00,
2013-03-17 18:53:00,41.9,37.1,30.03,WNW,292,4.0,4.0,83,0.00,,OVC027,0.08,VWS V14.01,2013-03-17 22:53:00,
2013-03-17 18:58:00,41.7,37.2,30.03,NNW,338,2.5,4.0,84,0.00,,OVC027,0.08,VWS V14.01,2013-03-17 22:58:00,
2013-03-17 19:03:00,41.7,37.2,30.03,NNW,338,3.6,3.8,84,0.00,,OVC018,0.08,VWS V14.01,2013-03-17 23:03:00,
2013-03-17 19:08:00,41.5,37.7,30.03,NW,315,3.1,5.6,86,0.00,,OVC018,0.08,VWS V14.01,2013-03-17 23:08:00,
2013-03-17 19:13:00,41.4,37.2,30.03,North,0,0.9,4.3,85,0.00,,OVC018,0.08,VWS V14.01,2013-03-17 23:13:00,
2013-03-17 19:18:00,41.4,37.2,30.03,NW,315,0.0,3.1,85,0.00,,OVC018,0.08,VWS V14.01,2013-03-17 23:18:00,
2013-03-17 19:23:00,41.2,37.3,30.03,NW,315,1.1,2.5,86,0.00,,OVC018,0.08,VWS V14.01,2013-03-17 23:23:00,
2013-03-17 19:28:00,41.2,37.3,30.03,SE,135,4.0,4.0,86,0.00,,OVC018,0.08,VWS V14.01,2013-03-17 23:28:00,
2013-03-17 19:33:00,41.0,37.4,30.03,SE,135,2.5,4.0,87,0.00,,OVC018,0.08,VWS V14.01,2013-03-17 23:33:00,
2013-03-17 19:38:00,41.0,37.4,30.03,South,180,1.1,2.7,87,0.00,,OVC018,0.08,VWS V14.01,2013-03-17 23:38:00,
2013-03-17 19:43:00,41.0,37.4,30.03,SSW,202,0.0,0.0,87,0.00,,OVC018,0.08,VWS V14.01,2013-03-17 23:43:00,
2013-03-17 19:48:00,41.0,37.4,30.00,SW,225,1.1,1.1,87,0.00,,OVC018,0.08,VWS V14.01,2013-03-17 23:48:00,
2013-03-17 19:53:00,41.0,37.7,30.00,SSW,202,2.0,2.7,88,0.00,,OVC018,0.08,VWS V14.01,2013-03-17 23:53:00,
2013-03-17 19:58:00,40.8,37.8,30.00,NW,315,0.0,3.6,89,0.00,,OVC018,0.08,VWS V14.01,2013-03-17 23:58:00,
2013-03-17 20:03:00,40.8,38.1,30.03,NNW,338,0.0,1.6,90,0.00,,,0.08,VWS V14.01,2013-03-18 00:03:00,
2013-03-17 20:08:00,40.6,37.9,30.03,NW,315,0.0,0.0,90,0.00,,,0.08,VWS V14.01,2013-03-18 00:08:00,
2013-03-17 20:13:00,40.6,37.9,30.03,SW,225,1.1,1.3,90,0.00,,,0.08,VWS V14.01,2013-03-18 00:13:00,
2013-03-17 20:18:00,40.8,38.1,30.03,WSW,248,0.0,2.0,90,0.00,,,0.08,VWS V14.01,2013-03-18 00:18:00,
2013-03-17 20:23:00,40.6,38.2,30.03,NW,315,0.0,0.0,91,0.00,,,0.08,VWS V14.01,2013-03-18 00:23:00,
2013-03-17 20:28:00,40.6,38.2,30.03,WNW,292,0.0,0.9,91,0.00,,,0.08,VWS V14.01,2013-03-18 00:28:00,
2013-03-17 20:33:00,40.6,38.2,30.03,WSW,248,0.0,1.3,91,0.00,,-RA,0.08,VWS V14.01,2013-03-18 00:33:00,
2013-03-17 20:38:00,40.6,38.2,30.03,South,180,0.0,0.0,91,0.00,,-RA,0.08,VWS V14.01,2013-03-18 00:38:00,
2013-03-17 20:43:00,40.6,38.2,30.03,South,180,0.0,1.3,91,0.00,,-RA,0.08,VWS V14.01,2013-03-18 00:43:00,
2013-03-17 20:48:00,40.6,38.5,30.03,South,180,0.0,0.0,92,0.00,,-RA,0.08,VWS V14.01,2013-03-18 00:48:00,
2013-03-17 20:53:00,40.6,38.8,30.03,East,90,0.0,0.0,93,0.00,,-RA,0.08,VWS V14.01,2013-03-18 00:53:00,
2013-03-17 20:58:00,40.5,38.6,30.03,East,90,0.0,0.0,93,0.00,,-RA,0.08,VWS V14.01,2013-03-18 00:58:00,
2013-03-17 21:03:00,40.5,38.6,30.03,SSW,202,1.1,1.1,93,0.00,,-RA,0.08,VWS V14.01,2013-03-18 01:03:00,
2013-03-17 21:08:00,40.6,38.8,30.03,SW,225,0.0,1.1,93,0.00,,-RA,0.08,VWS V14.01,2013-03-18 01:08:00,
2013-03-17 21:13:00,40.6,38.8,30.03,West,270,1.3,2.0,93,0.00,,-RA,0.08,VWS V14.01,2013-03-18 01:13:00,
2013-03-17 21:18:00,40.6,39.0,30.03,SSW,202,0.0,1.6,94,0.00,,-RA,0.08,VWS V14.01,2013-03-18 01:18:00,
2013-03-17 21:23:00,40.6,39.0,30.03,NW,315,0.0,0.0,94,0.00,,-RA,0.08,VWS V14.01,2013-03-18 01:23:00,
2013-03-17 21:28:00,40.6,39.3,30.03,NW,315,0.0,0.0,95,0.00,,-RA,0.08,VWS V14.01,2013-03-18 01:28:00,
2013-03-17 21:33:00,40.6,39.0,30.03,West,270,0.0,0.0,94,0.00,,-RA,0.08,VWS V14.01,2013-03-18 01:33:00,
2013-03-17 21:38:00,40.6,39.0,30.03,South,180,0.9,1.3,94,0.00,,-RA,0.08,VWS V14.01,2013-03-18 01:38:00,
2013-03-17 21:43:00,40.8,39.5,30.03,South,180,0.0,0.0,95,0.00,,-RA,0.08,VWS V14.01,2013-03-18 01:43:00,
2013-03-17 21:48:00,40.8,39.5,30.03,SE,135,0.0,1.3,95,0.00,,-RA,0.08,VWS V14.01,2013-03-18 01:48:00,
2013-03-17 21:53:00,40.8,39.5,30.03,South,180,0.0,0.9,95,0.00,,-RA,0.08,VWS V14.01,2013-03-18 01:53:00,
2013-03-17 21:58:00,40.8,39.8,30.03,West,270,0.0,1.1,96,0.00,,-RA,0.08,VWS V14.01,2013-03-18 01:58:00,
2013-03-17 22:03:00,40.8,39.8,30.03,NNE,22,1.3,1.3,96,0.00,,OVC008,0.08,VWS V14.01,2013-03-18 02:03:00,
2013-03-17 22:08:00,40.8,39.8,30.03,ENE,68,1.3,1.3,96,0.00,,OVC008,0.08,VWS V14.01,2013-03-18 02:08:00,
2013-03-17 22:13:00,41.0,40.0,30.03,South,180,1.3,3.6,96,0.00,,OVC008,0.08,VWS V14.01,2013-03-18 02:13:00,
2013-03-17 22:18:00,41.0,40.0,30.03,North,0,0.0,2.5,96,0.00,,OVC008,0.08,VWS V14.01,2013-03-18 02:18:00,
2013-03-17 22:23:00,41.0,40.0,30.03,NNW,338,0.0,1.3,96,0.00,,OVC008,0.08,VWS V14.01,2013-03-18 02:23:00,
2013-03-17 22:28:00,41.2,40.1,30.03,West,270,2.7,2.9,96,0.00,,OVC008,0.08,VWS V14.01,2013-03-18 02:28:00,
2013-03-17 22:33:00,41.5,40.8,30.03,North,0,2.2,3.4,97,0.00,,OVC008,0.08,VWS V14.01,2013-03-18 02:33:00,
2013-03-17 22:38:00,41.4,40.6,30.03,NNW,338,0.0,2.7,97,0.00,,OVC008,0.08,VWS V14.01,2013-03-18 02:38:00,
2013-03-17 22:43:00,41.5,40.8,30.03,ESE,112,2.0,2.0,97,0.00,,OVC008,0.08,VWS V14.01,2013-03-18 02:43:00,
2013-03-17 22:48:00,41.7,40.9,30.03,ESE,112,0.0,2.9,97,0.00,,OVC008,0.08,VWS V14.01,2013-03-18 02:48:00,
2013-03-17 22:53:00,41.7,40.7,30.03,NW,315,0.0,3.1,96,0.00,,OVC008,0.08,VWS V14.01,2013-03-18 02:53:00,
2013-03-17 22:58:00,41.7,40.9,30.03,South,180,0.0,3.1,97,0.00,,OVC008,0.08,VWS V14.01,2013-03-18 02:58:00,
2013-03-17 23:01:00,41.9,36.8,30.03,SE,135,1.3,3.4,82,0.00,,OVC090,0.08,VWS V14.01,2013-03-18 03:01:00,
2013-03-17 23:02:00,41.9,36.8,30.03,NE,45,2.5,4.0,82,0.00,,OVC008,0.08,VWS V14.01,2013-03-18 03:02:00,
2013-03-17 23:03:00,41.7,40.7,30.03,South,180,3.8,5.8,96,0.00,,OVC090,0.08,VWS V14.01,2013-03-18 03:03:00,
2013-03-17 23:04:00,41.7,37.0,30.03,SW,225,0.0,4.0,83,0.00,,OVC008,0.08,VWS V14.01,2013-03-18 03:04:00,
2013-03-17 23:05:00,41.7,37.0,30.03,NNE,22,1.3,4.0,83,0.00,,OVC008,0.08,VWS V14.01,2013-03-18 03:05:00,
2013-03-17 23:08:00,42.1,40.5,30.03,SSE,158,2.7,4.9,94,0.00,,OVC090,0.08,VWS V14.01,2013-03-18 03:08:00,
2013-03-17 23:13:00,42.1,39.9,30.03,NE,45,0.9,5.8,92,0.00,,OVC090,0.08,VWS V14.01,2013-03-18 03:13:00,
2013-03-17 23:18:00,42.1,39.4,30.03,ESE,112,3.8,3.8,90,0.00,,OVC090,0.08,VWS V14.01,2013-03-18 03:18:00,
2013-03-17 23:23:00,42.1,39.1,30.03,East,90,4.0,4.3,89,0.00,,OVC090,0.08,VWS V14.01,2013-03-18 03:23:00,
2013-03-17 23:28:00,42.1,38.8,30.03,SW,225,2.2,4.7,88,0.00,,OVC090,0.08,VWS V14.01,2013-03-18 03:28:00,
2013-03-17 23:33:00,42.1,38.5,30.03,SW,225,1.6,7.4,87,0.00,,OVC090,0.08,VWS V14.01,2013-03-18 03:33:00,
2013-03-17 23:38:00,41.9,38.3,30.03,South,180,2.0,4.9,87,0.00,,OVC090,0.08,VWS V14.01,2013-03-18 03:38:00,
2013-03-17 23:43:00,41.9,38.0,30.03,SSE,158,3.8,3.8,86,0.00,,OVC090,0.08,VWS V14.01,2013-03-18 03:43:00,
2013-03-17 23:48:00,41.9,37.4,30.03,ESE,112,2.7,9.8,84,0.00,,OVC090,0.08,VWS V14.01,2013-03-18 03:48:00,
2013-03-17 23:53:00,42.1,37.0,30.03,NW,315,2.7,2.7,82,0.00,,OVC090,0.08,VWS V14.01,2013-03-18 03:53:00,
2013-03-17 23:58:00,41.9,36.8,30.03,ESE,112,2.7,5.4,82,0.00,,OVC090,0.08,VWS V14.01,2013-03-18 03:58:00,